Waarnemingen

Advertentie
Mijn weer
Annecy-Meythet, Frankrijk (7490): temperatuur & dauwpunt: 14.07.2018 04:00:00 - 20.07.2018 04:00:00 (CEST)Annecy-Meythet, Frankrijk (7490): temperatuur 5cm: 14.07.2018 04:00:00 - 20.07.2018 04:00:00 (CEST)Annecy-Meythet, Frankrijk (7490): temperatuur -20cm & temperatuur -100cm: 14.07.2018 04:00:00 - 20.07.2018 04:00:00 (CEST)Annecy-Meythet, Frankrijk (7490): windsnelheid & windstoten: 14.07.2018 04:00:00 - 20.07.2018 04:00:00 (CEST)Annecy-Meythet, Frankrijk (7490): windrichting: 14.07.2018 04:00:00 - 20.07.2018 04:00:00 (CEST)Annecy-Meythet, Frankrijk (7490): luchtdruk: 14.07.2018 04:00:00 - 20.07.2018 04:00:00 (CEST)Annecy-Meythet, Frankrijk (7490): zicht: 14.07.2018 04:00:00 - 20.07.2018 04:00:00 (CEST)Annecy-Meythet, Frankrijk (7490): neerslag: 14.07.2018 04:00:00 - 20.07.2018 04:00:00 (CEST)
Datum & Tijd tt [°C] td [°C] tt 5cm [°C] tt -20cm [°C] tt -100cm [°C] ff [km/u] ff [kn] fx [km/u] fx [kn] dd ppp [hPa] vv [km] rr [mm]
20.07.2018 04:00:00 17,7 13,8 15,4 24,0 19,2 9 5 17 9 NO 1014,2 42 0,0
20.07.2018 03:00:00 18,1 14,0 15,5 24,4 19,2 9 5 16 9 NO 1014,4 40 0,0
20.07.2018 02:00:00 18,4 14,1 15,8 24,8 19,2 9 5 14 7 NO 1014,7 40 0,0
20.07.2018 01:00:00 19,5 14,1 16,4 25,1 19,2 9 5 14 7 NO 1014,6 42 0,0
20.07.2018 00:00:00 20,1 14,2 16,8 25,5 19,2 8 5 12 6 NO 1014,3 46 0,0
19.07.2018 23:00:00 21,7 14,8 17,9 25,9 19,2 7 4 10 6 NO 1013,5 49 0,0
19.07.2018 22:00:00 23,9 14,9 19,5 26,4 19,2 4 2 12 6 NNW 1012,9 2,1 0,0
19.07.2018 21:00:00 27,3 13,3 24,9 26,6 19,2 6 3 18 10 W 1012,0 60 0,0
19.07.2018 20:00:00 30,1 12,5 30,7 26,8 19,2 6 3 15 8 W 1011,2 40 0,0
19.07.2018 19:00:00 30,5 11,0 35,3 26,7 19,1 9 5 18 10 N 1010,9 60 0,0
19.07.2018 18:00:00 31,0 4,7 36,1 26,5 19,1 10 5 23 12 NW 1011,0 50 0,0
19.07.2018 17:00:00 30,7 6,5 36,5 26,0 19,2 8 4 22 12 NW 1011,6 54 0,0
19.07.2018 16:00:00 30,1 6,0 36,4 25,4 19,1 10 6 25 14 NW 1012,2 60 0,0
19.07.2018 15:00:00 30,5 8,8 35,9 24,7 19,1 10 6 23 13 WZW 1012,3 60 0,0
19.07.2018 14:00:00 28,6 13,3 34,7 24,0 19,1 9 5 24 13 NW 1013,1 58 0,0
19.07.2018 13:00:00 27,8 13,3 33,4 23,4 19,1 5 3 17 9 WNW 1013,7 60 0,0
19.07.2018 12:00:00 27,0 15,4 31,1 22,9 19,1 6 3 16 9 WNW 1014,0 31 0,0
19.07.2018 11:00:00 25,1 15,7 29,7 22,6 19,1 5 3 14 7 ZW 1014,4 49 0,0
19.07.2018 10:00:00 23,4 15,4 25,6 22,4 19,1 3 2 11 6 OZO 1014,9 59 0,0
19.07.2018 09:00:00 21,9 15,0 20,9 22,4 19,1 3 2 11 6 ONO 1015,4 19 0,0
19.07.2018 08:00:00 18,8 15,1 16,2 22,6 19,1 9 5 16 9 O 1015,8 33 0,0
19.07.2018 07:00:00 17,0 15,5 14,9 22,8 19,1 11 6 16 9 NO 1016,2 34 0,0
19.07.2018 06:00:00 16,1 15,3 15,1 23,1 19,1 10 5 17 9 NO 1016,2 23 0,2
19.07.2018 05:00:00 16,6 16,1 15,6 23,4 19,1 12 7 19 11 NO 1016,1 17 0,0
19.07.2018 04:00:00 18,0 16,5 16,4 23,8 19,1 15 8 22 12 NO 1015,9 38 0,0
19.07.2018 03:00:00 18,8 16,8 16,3 24,1 19,1 10 5 14 8 O 1016,2 37 0,0
19.07.2018 02:00:00 18,1 16,9 16,6 24,5 19,1 5 3 10 6 NO 1016,3 20 0,0
19.07.2018 01:00:00 19,1 18,1 18,1 24,9 19,1 4 2 14 8 NO 1015,9 20 0,0
19.07.2018 00:00:00 19,2 16,8 17,7 25,2 19,1 6 3 43 23 WZW 1015,8 16 1,0
18.07.2018 23:00:00 24,0 14,4 20,5 25,6 19,1 9 5 15 8 ZW 1013,9 60 0,0
18.07.2018 22:00:00 25,1 13,6 22,6 25,9 19,1 6 3 16 8 W 1013,2 8 0,0
18.07.2018 21:00:00 26,6 13,7 25,1 26,1 19,1 10 5 20 11 WZW 1012,4 60 0,0
18.07.2018 20:00:00 27,8 14,1 27,1 26,3 19,1 12 7 19 10 WZW 1012,1 60 0,0
18.07.2018 19:00:00 29,5 13,7 30,6 26,3 19,1 8 5 23 12 WNW 1011,5 54 0,0
18.07.2018 18:00:00 29,9 12,8 34,3 26,0 19,1 9 5 25 13 WNW 1011,5 58 0,0
18.07.2018 17:00:00 30,1 12,1 34,5 25,5 19,1 8 5 25 14 WNW 1011,8 19 0,0
18.07.2018 16:00:00 29,6 11,6 35,4 24,9 19,1 12 7 27 15 WNW 1012,5 60 0,0
18.07.2018 15:00:00 28,9 12,7 35,4 24,1 19,1 11 6 23 12 W 1013,0 56 0,0
18.07.2018 14:00:00 28,0 12,8 33,3 23,4 19,1 9 5 25 13 NW 1013,7 60 0,0
18.07.2018 13:00:00 27,2 14,6 32,7 22,7 19,1 11 6 22 12 WNW 1014,4 60 0,0
18.07.2018 12:00:00 26,0 14,8 30,2 22,2 19,1 6 4 22 12 N 1015,1 60 0,0
18.07.2018 11:00:00 24,7 14,8 29,1 21,8 19,1 8 5 16 9 ZW 1015,5 20 0,0
18.07.2018 10:00:00 23,1 14,1 25,5 21,6 19,1 4 2 12 6 ZZO 1016,1 52 0,0
18.07.2018 09:00:00 21,4 13,8 21,2 21,6 19,1 3 2 9 5 ONO 1016,7 41 0,0
18.07.2018 08:00:00 18,6 13,2 14,7 21,7 19,1 7 4 11 6 ONO 1017,2 20 0,0
18.07.2018 07:00:00 15,8 13,6 12,9 22,0 19,1 7 4 10 5 NNO 1017,7 31 0,0
18.07.2018 06:00:00 14,8 13,2 12,7 22,3 19,1 7 4 12 7 NO 1017,8 20 0,0
18.07.2018 05:00:00 15,0 13,4 12,7 22,6 19,1 7 4 10 6 NNO 1017,7 33 0,0
18.07.2018 04:00:00 15,5 13,3 13,2 22,9 19,1 8 4 10 5 NO 1017,6 32 0,0
18.07.2018 03:00:00 16,4 13,7 13,6 23,3 19,1 5 3 9 5 NO 1017,8 36 0,0
18.07.2018 02:00:00 17,0 14,5 14,6 23,6 19,1 2 1 5 3 ZZO 1017,9 47 0,0
18.07.2018 01:00:00 18,7 13,8 15,6 23,9 19,1 4 2 12 7 NNW 1017,5 50 0,0
18.07.2018 00:00:00 19,3 13,9 16,0 24,3 19,1 4 2 8 4 ZZW 1017,0 53 0,0
17.07.2018 23:00:00 20,3 13,7 16,8 24,7 19,1 5 3 10 5 NW 1016,6 57 0,0
17.07.2018 22:00:00 22,4 13,5 19,0 25,0 19,1 3 1 17 9 WZW 1016,1 2,1 0,0
17.07.2018 21:00:00 24,3 13,2 23,7 25,3 19,1 10 5 27 14 NNW 1015,2 59 0,0
17.07.2018 20:00:00 26,2 12,6 26,2 25,5 19,1 16 9 35 19 NNW 1014,4 60 0,0
17.07.2018 19:00:00 27,3 12,5 28,9 25,5 19,1 13 7 27 15 NNW 1014,1 59 0,0
17.07.2018 18:00:00 28,0 13,1 32,0 25,3 19,1 13 7 36 19 NNW 1014,0 55 0,0
17.07.2018 17:00:00 28,1 12,4 32,4 24,9 19,1 16 9 31 17 NW 1014,0 49 0,0
17.07.2018 16:00:00 27,9 11,0 30,2 24,4 19,1 12 7 32 17 NNW 1014,2 40 0,0
17.07.2018 15:00:00 28,2 12,1 29,9 23,8 19,1 14 8 32 18 NNW 1014,2 19 0,0
17.07.2018 14:00:00 28,1 11,2 33,1 23,1 19,1 6 4 21 11 NW 1014,6 56 0,0
17.07.2018 13:00:00 27,0 12,6 31,9 22,4 19,1 8 4 19 11 NNW 1015,2 58 0,0
17.07.2018 12:00:00 25,2 13,1 29,7 21,9 19,1 6 3 19 11 W 1015,7 60 0,0
17.07.2018 11:00:00 24,2 13,7 28,6 21,5 19,1 8 5 17 9 WZW 1016,0 20 0,0
17.07.2018 10:00:00 23,0 13,7 25,9 21,4 19,1 5 3 20 11 ZZW 1016,1 50 0,0
17.07.2018 09:00:00 21,5 13,4 20,7 21,4 19,1 3 2 9 5 O 1016,4 41 0,0
17.07.2018 08:00:00 18,3 13,4 15,0 21,5 19,1 6 3 11 6 NO 1016,9 22 0,0
17.07.2018 07:00:00 15,9 12,8 13,5 21,7 19,1 6 3 11 6 ONO 1016,8 37 0,0
17.07.2018 06:00:00 15,0 12,7 13,0 21,9 19,1 7 4 11 6 NO 1016,6 32 0,0
17.07.2018 05:00:00 15,3 12,4 13,0 22,2 19,1 6 4 11 6 NNO 1016,0 41 0,0
17.07.2018 04:00:00 15,8 12,5 13,7 22,5 19,1 6 4 10 5 NNO 1015,5 59 0,0
17.07.2018 03:00:00 16,9 13,0 15,0 22,8 19,1 6 4 11 6 NNO 1015,1 57 0,0
17.07.2018 02:00:00 18,5 12,7 15,3 23,1 19,1 6 3 10 6 NW 1014,5 59 0,0
17.07.2018 01:00:00 19,6 12,1 16,8 23,4 19,1 5 3 13 7 ONO 1013,9 60 0,0
17.07.2018 00:00:00 21,5 11,5 18,1 23,8 19,1 5 3 37 20 NW 1013,4 20 0,0
16.07.2018 23:00:00 22,6 11,0 19,9 24,1 19,0 5 3 22 12 NW 1012,3 60 0,0
16.07.2018 22:00:00 23,7 12,3 22,3 24,4 19,0 11 6 21 12 NW 1010,9 60 0,0
16.07.2018 21:00:00 24,5 13,1 23,7 24,7 19,0 11 6 18 10 NW 1009,7 60 0,0
16.07.2018 20:00:00 25,7 11,8 25,1 24,9 19,0 10 6 22 12 NNW 1008,9 49 0,0
16.07.2018 19:00:00 28,2 11,7 30,5 24,9 19,0 13 7 37 20 NNW 1007,7 53 0,0
16.07.2018 18:00:00 29,7 11,2 35,0 24,6 19,0 10 5 27 14 NNO 1007,0 60 0,0
16.07.2018 17:00:00 29,2 12,6 34,2 24,2 19,0 12 7 29 15 NNW 1007,0 60 0,0
16.07.2018 16:00:00 29,3 12,3 33,5 23,7 19,0 14 8 30 16 NW 1007,3 58 0,0
16.07.2018 15:00:00 28,2 12,1 32,6 23,1 19,0 17 9 32 17 NW 1008,1 56 0,0
16.07.2018 14:00:00 27,2 13,5 30,8 22,5 19,0 16 9 31 17 NW 1009,0 60 0,0
16.07.2018 13:00:00 26,1 14,2 30,0 21,9 19,0 15 8 29 16 NW 1009,9 60 0,0
16.07.2018 12:00:00 25,1 15,7 28,5 21,4 19,0 11 6 28 15 NW 1010,4 60 0,0
16.07.2018 11:00:00 22,6 15,2 26,5 21,1 19,0 11 6 23 12 W 1011,5 60 0,0
16.07.2018 10:00:00 21,6 14,3 24,4 20,9 19,0 6 3 16 9 W 1012,2 59 0,0
16.07.2018 09:00:00 20,0 13,2 18,6 20,9 19,0 3 1 9 5 NNW 1013,2 54 0,0
16.07.2018 08:00:00 17,3 13,6 13,7 21,0 19,0 5 3 11 6 NNW 1014,2 50 0,0
16.07.2018 07:00:00 15,1 13,3 11,7 21,2 19,0 0 0 9 5 N 1014,7 52 0,0
16.07.2018 06:00:00 13,6 12,2 11,7 21,5 19,0 3 1 11 6 NO 1015,3 60 0,0
16.07.2018 05:00:00 13,5 12,6 11,8 21,8 19,0 8 4 10 6 NNO 1015,6 52 0,0
16.07.2018 04:00:00 13,8 12,7 12,5 22,1 19,0 8 4 10 6 ONO 1016,1 59 0,0
16.07.2018 03:00:00 15,1 12,6 13,1 22,4 19,0 4 2 17 9 NNO 1016,4 60 0,0
16.07.2018 02:00:00 15,6 13,4 13,9 22,7 19,0 14 8 18 10 NO 1016,3 60 0,0
16.07.2018 01:00:00 16,3 13,8 14,4 23,1 19,0 6 3 11 6 N 1016,7 60 0,0
16.07.2018 00:00:00 17,4 13,3 15,4 23,5 19,0 7 4 22 12 NNW 1016,4 60 0,0
15.07.2018 23:00:00 19,3 13,5 17,7 23,8 19,0 16 9 25 14 OZO 1015,9 60 0,0
15.07.2018 22:00:00 19,4 13,8 18,2 24,2 19,0 11 6 32 18 O 1015,3 60 0,0
15.07.2018 21:00:00 22,2 11,9 20,9 24,6 19,0 20 11 38 21 NO 1014,7 60 0,0
15.07.2018 20:00:00 21,9 13,3 21,2 24,9 19,0 6 3 38 21 NNW 1014,4 60 0,0
15.07.2018 19:00:00 24,5 15,1 23,6 25,2 19,0 14 8 29 15 WZW 1012,8 60 0,0
15.07.2018 18:00:00 26,4 16,0 24,8 25,3 19,0 9 5 18 10 W 1011,7 53 0,0
15.07.2018 17:00:00 28,2 12,5 28,1 25,1 19,0 10 6 24 13 WZW 1011,3 60 0,0
15.07.2018 16:00:00 29,3 13,5 33,7 24,6 18,9 13 7 27 15 WZW 1011,8 60 0,0
15.07.2018 15:00:00 28,2 14,4 34,4 23,9 18,9 10 5 23 12 W 1012,5 19 0,0
15.07.2018 14:00:00 27,7 14,7 33,3 23,2 18,9 4 2 21 11 WZW 1013,4 19 0,0
15.07.2018 13:00:00 26,0 15,4 31,9 22,5 19,0 5 3 14 8 ZZW 1014,3 60 0,0
15.07.2018 12:00:00 24,1 14,5 28,9 22,0 18,9 4 2 13 7 ZZW 1015,4 60 0,0
15.07.2018 11:00:00 21,4 15,5 21,9 21,7 19,0 6 3 18 10 ONO 1016,3 40 0,0
15.07.2018 10:00:00 19,1 15,2 19,5 21,6 18,9 8 5 18 10 WZW 1017,3 58 0,0
15.07.2018 09:00:00 18,0 14,5 17,0 21,6 18,9 3 1 9 5 ZO 1016,9 60 0,0
15.07.2018 08:00:00 16,4 14,4 15,2 21,7 18,9 7 4 12 7 ONO 1017,1 60 0,0
15.07.2018 07:00:00 15,3 14,2 12,9 21,9 18,9 5 3 9 5 NNO 1017,3 52 0,0
15.07.2018 06:00:00 13,7 13,4 12,6 22,3 18,9 4 2 8 5 NNO 1017,3 43 0,0
15.07.2018 05:00:00 14,3 13,8 13,0 22,6 18,9 5 3 11 6 NNO 1017,5 49 0,0
15.07.2018 04:00:00 14,7 14,2 13,8 22,9 18,9 5 3 12 7 NO 1017,5 38 0,0
15.07.2018 03:00:00 15,4 14,8 14,6 23,2 18,9 11 6 17 9 NO 1017,6 47 0,0
15.07.2018 02:00:00 16,0 15,0 15,3 23,6 18,9 12 6 16 9 NO 1017,6 58 0,0
15.07.2018 01:00:00 16,4 15,1 15,6 24,0 18,9 14 8 21 11 NO 1017,8 59 0,0
15.07.2018 00:00:00 17,2 15,2 16,0 24,4 18,9 12 7 21 11 NO 1017,8 60 0,0
14.07.2018 23:00:00 17,7 15,3 16,5 24,9 18,9 11 6 26 14 NNO 1017,7 60 0,0
14.07.2018 22:00:00 17,9 15,2 16,5 25,5 18,9 8 5 55 30 N 1017,7 59 1,8
14.07.2018 21:00:00 18,0 16,8 16,0 26,3 18,9 29 16 51 27 Z 1018,4 2,2 15,5
14.07.2018 20:00:00 24,1 13,6 22,9 26,8 18,9 5 3 36 19 ONO 1014,8 58 0,0
14.07.2018 19:00:00 24,1 14,5 24,5 26,9 18,9 21 11 38 21 NW 1014,8 20 0,0
14.07.2018 18:00:00 29,5 13,7 30,6 26,6 18,9 16 9 31 17 WNW 1013,3 20 0,0
14.07.2018 17:00:00 31,1 14,3 35,8 26,0 18,9 18 10 29 16 ZZW 1013,1 20 0,0
14.07.2018 16:00:00 30,6 13,8 37,0 25,3 18,9 13 7 31 17 WZW 1013,6 60 0,0
14.07.2018 15:00:00 30,3 14,0 31,9 24,7 18,9 8 4 33 18 ZW 1014,1 18 0,0
14.07.2018 14:00:00 28,7 14,1 29,4 24,2 18,9 6 4 22 12 WZW 1014,9 60 0,0
14.07.2018 13:00:00 29,4 13,6 32,9 23,5 18,9 9 5 21 11 W 1014,5 20 0,0
14.07.2018 12:00:00 27,8 13,0 32,0 23,1 18,9 8 4 16 9 ZW 1015,6 45 0,0
14.07.2018 11:00:00 26,7 12,7 31,7 22,7 18,9 6 3 14 7 Z 1016,3 18 0,0
14.07.2018 10:00:00 25,4 12,3 25,2 22,6 18,9 2 1 11 6 ONO 1016,7 60 0,0
14.07.2018 09:00:00 21,9 11,9 21,0 22,5 18,8 3 2 11 6 ONO 1017,7 59 0,0
14.07.2018 08:00:00 19,3 13,0 15,5 22,7 18,9 5 3 8 5 ONO 1018,3 50 0,0
14.07.2018 07:00:00 16,6 12,9 14,4 22,9 18,9 5 3 8 4 NO 1018,8 48 0,0
14.07.2018 06:00:00 16,5 12,8 14,4 23,2 18,9 4 2 10 6 ONO 1018,8 51 0,0
14.07.2018 05:00:00 16,3 12,5 14,2 23,5 18,8 5 3 11 6 NO 1018,9 54 0,0
14.07.2018 04:00:00 16,8 12,7 14,7 23,8 18,9 5 3 12 7 NO 1018,5 57 0,0

tt = temperatuur
td = dauwpunt
tt 5cm = temperatuur 5cm
tt -20cm = temperatuur -20cm
tt -100cm = temperatuur -100cm
ff = windsnelheid
fx = windstoten
dd = windrichting
ppp = luchtdruk
vv = zicht
rr = neerslag

Weerstations in de omgeving